Tracking 27423 objects as of 8-Jun-2023
HD Live streaming from Space Station
objects crossing your sky now

NAVSTAR 77 (USA 289)

Track NAVSTAR 77 (USA 289) now!
NAVSTAR 77 (USA 289) is classified as:


NORAD ID: 43873
Int'l Code: 2018-109A
Perigee: 20,124.2 km
Apogee: 20,254.4 km
Inclination: 55.2 °
Period: 718.0 minutes
Semi major axis: 26560 km
RCS: Unknown
Launch date: December 23, 2018
Source: United States (US)
Launch site: AIR FORCE EASTERN TEST RANGE (AFETR)
PRN: 4
Your satellite tracking list
Your tracking list is empty




NASA's NSSDC Master Catalog

Two Line Element Set (TLE):
1 43873U 18109A   23158.39696656  .00000061  00000-0  00000-0 0  9990
2 43873  55.1720 135.8789 0024503 194.7655 331.5389  2.00564427 32893
Source of the keplerian elements: AFSPC